Location: Erp
(42.9417°N, 1.2009°E)
Time: 09:53:45
(UTC+00:00)

Cosmos 1302 Rocket - Pass Details

Date: 12 January 2026
Orbit: 752 x 772 km, 74.0° (Epoch: 11 February)

Event Time Altitude Azimuth Distance (km) Brightness Sun altitude
Rises 18:54:37 0° 192° (SSW) 3,213 7.5 -23.6°
Reaches altitude 10° 18:56:59 10° 190° (S) 2,294 6.7 -24.0°
Enters shadow 19:02:03 70° 117° (ESE) 816 3.9 -25.0°
